DW2973 Weather Reports


time (UTC)temp
C
wind
direction
speed
KPH
gust
KPH
rain 1hr
cm
rain 24hr
cm
rain mn
cm
humidity
%
barometer
mb
20260509234553 5 165 0.0 0.0 0.00 0.00 0.00 83 1017.7
20260509233045 5 166 0.0 0.0 0.00 0.00 0.00 82 1017.9
20260509231535 5 165 0.0 0.0 0.00 0.00 0.00 81 1018.1
20260509230036 5 166 0.0 0.0 0.00 0.00 0.00 80 1018.4
20260509224531 6 165 0.0 0.0 0.00 0.00 0.00 78 1018.5
20260509223027 6 166 0.0 0.0 0.00 0.00 0.00 77 1018.5
20260509221527 7 167 0.0 0.0 0.00 0.00 0.00 76 1018.6
20260509220026 7 167 0.0 0.0 0.00 0.00 0.00 77 1018.6
20260509214529 7 167 0.0 0.0 0.00 0.00 0.00 75 1018.7
20260509213022 7 167 0.0 0.0 0.00 0.00 0.00 74 1018.7
20260509211522 8 167 0.0 0.0 0.00 0.00 0.00 73 1018.8
20260509210026 8 167 0.0 0.0 0.00 0.00 0.00 73 1018.8
20260509204525 8 167 0.0 0.0 0.00 0.00 0.00 72 1019.0
20260509203020 8 167 0.0 0.0 0.00 0.00 0.00 71 1019.1
20260509201521 8 165 0.0 0.0 0.00 0.00 0.00 68 1019.0
20260509200020 8 165 0.0 0.0 0.00 0.00 0.00 66 1019.1
20260509194521 10 165 0.0 0.0 0.00 0.00 0.00 63 1019.0
20260509193025 10 165 0.0 0.0 0.00 0.00 0.00 60 1019.0
20260509191525 11 165 0.0 0.0 0.00 0.00 0.00 56 1018.8
20260509190018 11 165 0.0 0.0 0.00 0.00 0.00 52 1018.8
20260509184529 12 167 0.0 0.0 0.00 0.00 0.00 48 1018.5
20260509183017 13 167 0.0 0.0 0.00 0.00 0.00 45 1018.5
20260509181516 13 168 0.0 0.0 0.00 0.00 0.00 45 1018.6
20260509180017 14 171 0.0 0.0 0.00 0.00 0.00 45 1018.6
20260509174515 15 168 0.0 0.0 0.00 0.00 0.00 43 1018.6
20260509173014 15 163 0.0 0.0 0.00 0.00 0.00 41 1018.7
20260509171517 16 163 0.0 0.0 0.00 0.00 0.00 39 1018.7
20260509170015 17 202 0.0 0.0 0.00 0.00 0.00 38 1018.8
20260509164512 17 228 0.0 0.0 0.00 0.00 0.00 39 1018.9
20260509163013 17 232 3.2 0.0 0.00 0.00 0.00 37 1018.8
20260509161511 17 134 0.0 0.0 0.00 0.00 0.00 38 1018.9
20260509160009 17 30 0.0 0.0 0.00 0.00 0.00 42 1019.2
20260509154508 17 30 0.0 0.0 0.00 0.00 0.00 43 1019.4
20260509153005 17 29 0.0 0.0 0.00 0.00 0.00 42 1019.5
20260509151505 16 26 0.0 0.0 0.00 0.00 0.00 44 1019.5
20260509150002 16 360 0.0 0.0 0.00 0.00 0.00 42 1019.8
20260509144507 16 18 0.0 0.0 0.00 0.00 0.00 41 1019.8
20260509143129 15 44 0.0 0.0 0.00 0.00 0.00 43 1020.1
20260509141558 16 355 0.0 0.0 0.00 0.00 0.00 43 1020.1
20260509140106 15 9 0.0 0.0 0.00 0.00 0.00 44 1020.4
20260509134610 16 10 1.6 0.0 0.00 0.00 0.00 42 1020.6
20260509133054 16 38 0.0 0.0 0.00 0.00 0.00 43 1020.7
20260509131553 15 13 1.6 0.0 0.00 0.00 0.00 43 1021.0
20260509130059 15 11 1.6 0.0 0.00 0.00 0.00 43 1020.9
20260509124550 16 42 0.0 0.0 0.00 0.00 0.00 43 1021.1
20260509123103 16 28 0.0 0.0 0.00 0.00 0.00 44 1021.3
20260509121607 16 351 0.0 0.0 0.00 0.00 0.00 43 1021.5
20260509120046 15 22 1.6 0.0 0.00 0.00 0.00 46 1021.7
20260509114545 16 321 1.6 0.0 0.00 0.00 0.00 44 1021.9
20260509113047 16 34 1.6 0.0 0.00 0.00 0.00 39 1021.9
20260509111558 17 76 0.0 0.0 0.00 0.00 0.00 36 1022.0
20260509110042 18 214 0.0 0.0 0.00 0.00 0.00 33 1022.0
20260509104545 18 217 1.6 0.0 0.00 0.00 0.00 29 1022.1
20260509103048 18 64 0.0 0.0 0.00 0.00 0.00 27 1022.0
20260509101608 18 137 0.0 0.0 0.00 0.00 0.00 27 1022.1
20260509100041 18 145 0.0 0.0 0.00 0.00 0.00 23 1022.2
20260509094539 17 157 0.0 0.0 0.00 0.00 0.00 23 1022.3
20260509093033 17 82 0.0 0.0 0.00 0.00 0.00 24 1022.3
20260509091539 16 44 0.0 0.0 0.00 0.00 0.00 23 1022.3
20260509090037 17 149 0.0 0.0 0.00 0.00 0.00 25 1022.4
20260509084525 16 115 0.0 0.0 0.00 0.00 0.00 31 1022.4
20260509083022 15 113 0.0 0.0 0.00 0.00 0.00 31 1022.4
20260509081525 15 91 0.0 0.0 0.00 0.00 0.00 32 1022.5
20260509080016 13 117 0.0 0.0 0.00 0.00 0.00 38 1022.6
20260509074512 12 116 0.0 0.0 0.00 0.00 0.00 41 1022.7
20260509073007 11 109 0.0 0.0 0.00 0.00 0.00 43 1022.7
20260509071505 11 116 0.0 0.0 0.00 0.00 0.00 49 1022.8
20260509070009 10 116 0.0 0.0 0.00 0.00 0.00 48 1022.9
20260509064501 10 137 0.0 0.0 0.00 0.00 0.00 53 1022.9
20260509063059 10 137 0.0 0.0 0.00 0.00 0.00 56 1023.0
20260509061556 10 137 0.0 0.0 0.00 0.00 0.00 62 1022.9
20260509060052 7 186 0.0 0.0 0.00 0.00 0.00 70 1022.9
20260509054558 6 190 0.0 0.0 0.00 0.00 0.00 73 1023.0
20260509053048 5 190 0.0 0.0 0.00 0.00 0.00 75 1023.0
20260509051542 5 194 0.0 0.0 0.00 0.00 0.00 77 1022.9
20260509050042 3 194 0.0 0.0 0.00 0.00 0.00 79 1023.1
20260509044541 3 194 0.0 0.0 0.00 0.00 0.00 80 1023.0
20260509043040 3 194 0.0 0.0 0.00 0.00 0.00 81 1023.1
20260509041608 3 194 0.0 0.0 0.00 0.00 0.00 80 1023.0
20260509040040 2 194 0.0 0.0 0.00 0.00 0.00 79 1022.9
20260509034538 2 194 0.0 0.0 0.00 0.00 0.00 76 1023.1
20260509033038 2 194 0.0 0.0 0.00 0.00 0.00 74 1023.1
20260509031538 2 194 0.0 0.0 0.00 0.00 0.00 75 1023.1
20260509030035 2 194 0.0 0.0 0.00 0.00 0.00 73 1023.2
20260509024534 2 194 0.0 0.0 0.00 0.00 0.00 73 1023.2
20260509023034 2 194 0.0 0.0 0.00 0.00 0.00 74 1023.2
20260509021536 2 194 0.0 0.0 0.00 0.00 0.00 76 1023.4
20260509020043 2 194 0.0 0.0 0.00 0.00 0.00 76 1023.3
20260509014531 2 194 0.0 0.0 0.00 0.00 0.00 74 1023.5
20260509013037 3 194 0.0 0.0 0.00 0.00 0.00 73 1023.6
20260509011525 3 194 0.0 0.0 0.00 0.00 0.00 72 1023.6
20260509010024 3 194 0.0 0.0 0.00 0.00 0.00 72 1023.7
20260509004522 3 194 0.0 0.0 0.00 0.00 0.00 71 1023.7
20260509003020 3 194 0.0 0.0 0.00 0.00 0.00 71 1023.8
20260509001519 3 194 0.0 0.0 0.00 0.00 0.00 73 1023.9